This demonstration page uses our WeatherBlox Daily Observations layout. Learn more.

Hourly Observations for December 31, 2019

Temp ( °F °C ) Dew Point ( °F °C ) Humidity (%) Winds ( mph kmh ) Pressure ( in mb ) Visibility ( mi km ) Precip ( " mm )
12:15 am 00:15 Clear 25 -3.7 18 -8 72 72 W 13 20 30.15 1021 10 16.0934 0 0
12:35 am 00:35 Clear 25 -3.8 17 -8.1 72 72 W 13 20 30.14 1021 10 16.0934 0 0
12:55 am 00:55 Clear 25 -4.1 17 -8.5 72 72 W 13 20 30.14 1021 10 16.0934 0 0
1:15 am 01:15 Clear 24 -4.4 17 -8.6 73 73 W 13 20 30.15 1021 10 16.0934 0 0
1:35 am 01:35 Clear 23 -5.1 16 -9 74 74 W 10 17 30.15 1021 10 16.0934 0 0
1:55 am 01:55 Clear 22 -5.7 15 -9.2 77 77 W 12 19 30.16 1021 10 16.0934 0 0
2:15 am 02:15 Clear 21 -6 15 -9.5 77 77 W 10 17 30.17 1022 10 16.0934 0 0
2:35 am 02:35 Clear 21 -6.3 15 -9.6 78 78 W 9 15 30.18 1022 10 16.0934 0 0
2:55 am 02:55 Clear 20 -6.4 15 -9.7 78 78 W 9 15 30.18 1022 10 16.0934 0 0
3:15 am 03:15 Clear 20 -6.4 15 -9.7 78 78 W 9 15 30.19 1022 10 16.0934 0 0
3:35 am 03:35 Clear 20 -6.5 14 -9.9 77 77 W 10 17 30.2 1023 10 16.0934 0 0
3:55 am 03:55 Clear 20 -6.7 14 -10 78 78 W 9 15 30.19 1022 10 16.0934 0 0
4:15 am 04:15 Clear 20 -6.5 14 -10 76 76 WNW 8 13 30.18 1022 10 16.0934 0 0
4:35 am 04:35 Clear 20 -6.5 14 -10 76 76 WNW 9 15 30.18 1022 10 16.0934 0 0
4:55 am 04:55 Clear 21 -6.3 14 -10 75 75 WNW 7 11 30.18 1022 10 16.0934 0 0
5:15 am 05:15 Clear 21 -6.3 14 -10 75 75 W 8 13 30.18 1022 10 16.0934 0 0
5:35 am 05:35 Clear 20 -6.6 14 -10 77 77 W 7 11 30.18 1022 10 16.0934 0 0
5:55 am 05:55 Clear 20 -6.8 14 -10.2 77 77 W 9 15 30.17 1022 10 16.0934 0 0
6:15 am 06:15 Clear 19 -7.4 13 -10.5 79 79 W 8 13 30.19 1022 10 16.0934 0 0
6:35 am 06:35 Clear 18 -8 12 -10.9 80 80 W 7 11 30.2 1023 10 16.0934 0 0
6:55 am 06:55 Clear 17 -8.5 12 -11 82 82 W 7 11 30.22 1023 10 16.0934 0 0
7:15 am 07:15 Clear 17 -8.3 12 -11 81 81 W 8 13 30.21 1023 10 16.0934 0 0
7:35 am 07:35 Clear 17 -8.2 12 -11.1 80 80 W 8 13 30.22 1023 10 16.0934 0 0
7:55 am 07:55 Clear 17 -8.5 12 -11.1 82 82 W 7 11 30.22 1023 10 16.0934 0 0
8:15 am 08:15 Sunny 16 -8.8 12 -11.2 83 83 W 8 13 30.21 1023 10 16.0934 0 0
8:35 am 08:35 Sunny 18 -8 12 -11 79 79 W 8 13 30.21 1023 10 16.0934 0 0
8:55 am 08:55 Sunny 19 -7.2 13 -10.5 78 78 W 9 15 30.21 1023 10 16.0934 0 0
9:15 am 09:15 Sunny 20 -6.6 14 -10.1 76 76 W 9 15 30.2 1023 10 16.0934 0 0
9:35 am 09:35 Sunny 22 -5.5 15 -9.5 74 74 W 7 11 30.2 1023 10 16.0934 0 0
9:55 am 09:55 Sunny 24 -4.7 16 -9.1 72 72 W 8 13 30.19 1022 10 16.0934 0 0
10:15 am 10:15 Sunny 25 -4 16 -8.7 70 70 W 6 9 30.19 1022 10 16.0934 0 0
10:35 am 10:35 Sunny 26 -3.5 17 -8.3 70 70 W 9 15 30.19 1022 10 16.0934 0 0
10:55 am 10:55 Sunny 27 -2.7 18 -7.8 68 68 W 10 17 30.17 1022 10 16.0934 0 0
11:15 am 11:15 Sunny 28 -2.3 18 -7.6 67 67 W 8 13 30.17 1022 10 16.0934 0 0
11:35 am 11:35 Sunny 28 -2.1 19 -7.1 69 69 WSW 7 11 30.17 1022 10 16.0934 0 0
11:55 am 11:55 Sunny 28 -2 19 -7.1 68 68 W 7 11 30.15 1021 10 16.0934 0 0
12:15 pm 12:15 Sunny 29 -1.4 20 -6.8 67 67 WSW 8 13 30.13 1020 10 16.0934 0 0
12:35 pm 12:35 Sunny 29 -1.7 20 -6.7 69 69 W 9 15 30.13 1020 10 16.0934 0 0
12:55 pm 12:55 Sunny 29 -1.4 20 -6.4 69 69 W 7 11 30.11 1020 10 16.0934 0 0
1:15 pm 13:15 Sunny 31 -0.7 21 -6.1 67 67 W 8 13 30.1 1019 10 16.0934 0 0
1:35 pm 13:35 Sunny 31 -0.5 21 -5.9 67 67 W 6 9 30.08 1019 10 16.0934 0 0
1:55 pm 13:55 Sunny 32 -0.2 22 -5.8 66 66 W 8 13 30.07 1018 10 16.0934 0 0
2:15 pm 14:15 Sunny 32 0 22 -5.5 67 67 W 9 15 30.06 1018 10 16.0934 0 0
2:35 pm 14:35 Sunny 32 0 21 -6.2 63 63 WSW 7 11 30.05 1018 10 16.0934 0 0
2:55 pm 14:55 Sunny 32 0 22 -5.8 65 65 WSW 7 11 30.05 1018 10 16.0934 0 0
3:15 pm 15:15 Sunny 32 0 22 -5.7 66 66 WSW 6 9 30.04 1017 10 16.0934 0 0
3:35 pm 15:35 Sunny 32 -0.2 23 -5 70 70 SW 7 11 30.05 1017 10 16.0934 0 0
3:55 pm 15:55 Sunny 32 -0.2 23 -5.1 70 70 SW 6 9 30.04 1017 10 16.0934 0 0
4:15 pm 16:15 Sunny 31 -0.5 22 -5.5 69 69 SW 6 9 30.03 1017 10 16.0934 0 0
4:35 pm 16:35 Sunny 30 -1 22 -5.3 73 73 SW 7 11 30.03 1017 10 16.0934 0 0
4:55 pm 16:55 Sunny 29 -1.4 22 -5.6 73 73 SW 7 11 30.04 1017 10 16.0934 0 0
5:15 pm 17:15 Sunny 28 -2.1 22 -5.8 76 76 SW 5 7 30.03 1017 10 16.0934 0 0
5:35 pm 17:35 Clear 27 -3 21 -6.1 79 79 SSW 6 9 30.03 1017 10 16.0934 0 0
5:55 pm 17:55 Clear 26 -3.5 21 -6.1 82 82 SW 7 11 30.04 1017 10 16.0934 0 0
6:15 pm 18:15 Clear 26 -3.5 21 -6.2 82 82 SW 8 13 30.03 1017 10 16.0934 0 0
6:35 pm 18:35 Clear 26 -3.5 21 -6.1 82 82 SSW 8 13 30.03 1017 10 16.0934 0 0
6:55 pm 18:55 Clear 26 -3.5 21 -6.3 81 81 SW 7 11 30.02 1017 10 16.0934 0 0
7:15 pm 19:15 Clear 26 -3.6 20 -6.5 81 81 SSW 8 13 30.02 1017 10 16.0934 0 0
7:35 pm 19:35 Clear 25 -4.1 20 -6.8 82 82 SW 8 13 30.01 1016 10 16.0934 0 0
7:55 pm 19:55 Clear 26 -3.5 21 -6.3 81 81 SW 8 13 30 1016 10 16.0934 0 0
8:15 pm 20:15 Clear 25 -4 20 -6.6 82 82 SSW 8 13 30 1016 10 16.0934 0 0
8:35 pm 20:35 Clear 25 -4.1 20 -6.7 82 82 SW 8 13 30 1016 10 16.0934 0 0
8:55 pm 20:55 Clear 26 -3.2 21 -6.1 81 81 SSW 8 13 29.99 1015 10 16.0934 0 0
9:15 pm 21:15 Clear 24 -4.3 20 -6.8 83 83 SW 8 13 29.99 1015 10 16.0934 0 0
9:35 pm 21:35 Clear 25 -3.7 20 -6.4 82 82 SSW 8 13 29.98 1015 10 16.0934 0 0
9:55 pm 21:55 Clear 25 -3.7 20 -6.7 80 80 SSW 7 11 29.97 1015 10 16.0934 0 0
10:15 pm 22:15 Clear 26 -3.6 20 -6.9 78 78 SSW 7 11 29.96 1015 10 16.0934 0 0
10:35 pm 22:35 Clear 26 -3.5 19 -7 77 77 SW 8 13 29.96 1014 10 16.0934 0 0
10:55 pm 22:55 Clear 26 -3.6 19 -7.2 76 76 SW 9 15 29.95 1014 10 16.0934 0 0
11:15 pm 23:15 Clear 26 -3.5 19 -7.2 76 76 SW 10 17 29.94 1014 10 16.0934 0 0
11:35 pm 23:35 Clear 25 -3.8 19 -7.5 76 76 SW 7 11 29.94 1014 10 16.0934 0 0
11:55 pm 23:55 Clear 25 -3.7 19 -7.4 76 76 SW 8 13 29.92 1013 10 16.0934 0 0

Powered by AerisWeather